Theta_e
300 300 300 301 301 300 300 299 299 299 299 300 301 302 303 304 305 305 305 305 306 307 309 310 312 314 316 318 319 319 319 318 315 310 307 306 306 307 308 309 309 310 310 310 310 310 309 308 307 307 307 306 305 305 305 305 305 305 305 305 305 304
299 300 300 300 300 299 299 299 299 298 299 299 300 301 302 303 304 304 305 305 306 307 309 311 313 315 316 317 317 316 315 312 310 307 306 306 306 307 308 308 308 308 308 308 308 307 307 306 306 305 305 304 304 304 303 303 303 302 302 302 302 302
298 298 299 299 298 298 298 298 298 298 298 299 300 300 301 302 303 303 304 305 306 307 308 310 312 314 314 314 314 313 311 309 308 306 306 306 307 307 307 307 306 306 306 306 306 305 305 304 304 304 303 303 302 302 302 302 301 301 300 300 300 300
295 296 297 297 297 297 297 297 297 298 298 298 299 299 300 301 301 302 303 304 305 306 307 308 310 311 311 311 312 310 308 307 306 306 306 306 306 306 306 305 305 305 305 304 304 303 303 303 302 302 301 301 300 300 300 300 300 300 299 299 299 299
293 294 295 296 296 296 296 296 296 297 297 298 298 299 299 300 301 301 302 303 304 305 305 306 307 308 308 308 308 307 306 305 305 305 305 305 305 305 304 304 304 303 303 302 302 301 301 301 300 299 298 298 298 298 298 298 298 297 297 297 297 297
291 292 292 293 294 294 294 295 295 296 296 296 297 298 298 299 300 301 301 302 302 303 304 304 305 305 305 305 305 305 304 304 304 304 304 304 304 303 303 302 302 301 300 300 299 299 298 298 297 297 297 297 297 297 297 297 297 296 296 296 296 296
288 289 290 291 291 292 293 294 294 294 295 295 296 297 297 298 299 300 300 301 301 302 302 302 303 303 303 303 303 303 303 304 304 303 303 303 302 302 301 300 299 299 298 297 297 296 296 296 295 295 295 295 295 295 295 295 295 294 294 294 293 293
285 286 287 288 289 290 291 292 293 293 294 294 295 296 296 297 297 299 299 300 300 300 301 301 302 302 302 302 303 303 303 303 302 302 301 301 300 299 298 297 296 296 295 295 294 294 294 293 293 293 292 292 292 292 292 292 291 291 291 291 291 290
284 284 285 286 287 288 289 289 291 292 293 293 294 295 295 296 296 297 298 298 299 299 300 300 300 301 301 302 302 302 302 301 301 300 299 298 297 296 295 294 294 293 292 292 292 292 292 291 291 291 291 291 291 290 290 290 290 290 290 290 290 289
281 282 283 284 285 287 288 288 288 290 292 292 293 294 294 295 295 296 297 297 298 298 298 298 299 299 300 300 300 300 300 299 299 297 296 295 294 293 292 292 291 291 291 291 291 291 291 291 291 290 290 290 290 290 290 290 289 289 289 289 289 289
279 280 281 282 283 285 286 286 286 288 290 291 291 292 293 293 294 295 295 296 296 296 296 297 297 297 298 298 298 298 297 296 295 294 293 292 291 291 290 290 290 290 290 290 290 290 290 290 290 290 290 290 289 289 289 289 289 289 289 289 288 288
278 279 280 281 281 282 284 284 284 285 288 289 290 291 291 292 292 293 294 294 295 295 294 294 294 294 295 295 295 294 294 293 292 291 291 290 289 289 289 289 290 290 290 290 290 289 289 289 289 289 289 289 289 289 289 288 288 288 288 288 288 288
277 279 280 280 280 280 281 282 282 283 286 287 288 289 290 290 291 291 292 292 293 293 292 292 292 292 292 292 292 291 291 290 290 289 289 288 288 289 289 289 289 289 289 289 289 289 288 288 288 288 288 288 288 288 288 288 288 287 287 287 287 287
276 277 278 279 279 279 279 280 281 281 284 286 287 287 288 289 289 290 290 291 291 291 291 291 290 290 290 290 289 289 289 288 288 288 288 288 288 288 288 288 288 288 288 288 288 288 288 288 287 287 287 287 287 287 287 287 287 287 287 287 286 286
274 275 276 277 278 278 277 278 279 280 281 284 285 286 286 287 288 289 289 289 289 289 289 289 289 288 288 288 288 287 287 287 287 287 287 287 287 287 287 287 287 287 287 287 287 287 287 287 286 286 286 286 286 286 286 286 286 286 286 286 286 286
273 274 275 276 277 277 277 277 278 279 280 282 284 285 286 286 287 288 288 288 288 287 287 287 287 287 287 287 287 287 286 286 286 286 286 286 286 286 286 286 286 286 286 286 286 286 286 286 286 286 286 286 286 286 286 286 286 286 286 286 285 285
272 273 274 275 276 277 277 277 278 279 279 281 283 284 285 286 286 286 286 286 286 286 286 286 286 286 286 286 286 286 286 286 286 286 286 286 286 286 286 286 286 286 286 286 286 286 286 286 285 285 285 285 285 285 285 285 285 285 285 285 285 285
271 271 272 273 274 276 276 276 277 278 279 280 282 283 284 285 286 286 286 285 286 286 285 286 286 286 285 285 285 285 285 285 285 285 285 285 285 285 285 285 286 286 286 286 285 285 286 285 285 285 285 285 285 285 285 285 285 285 285 285 285 285
270 270 271 272 273 274 275 276 277 277 278 280 282 282 283 285 285 285 285 285 285 285 285 285 285 285 285 285 285 285 285 285 285 285 285 285 285 285 285 285 285 285 285 285 285 285 286 285 285 285 285 285 285 285 285 285 285 285 285 285 285 284
269 270 271 271 273 273 274 275 276 276 277 279 281 282 283 284 285 285 285 285 285 285 285 285 285 285 285 285 285 285 285 285 285 285 285 285 285 285 285 285 285 285 285 285 285 285 285 285 285 285 285 285 285 284 284 285 284 284 284 284 284 284
269 270 270 271 273 273 274 274 275 276 277 278 280 281 282 284 284 284 284 284 284 284 284 284 284 284 285 285 285 285 285 284 284 284 284 284 285 285 284 284 285 285 285 285 285 285 285 285 285 285 285 284 284 284 284 284 284 284 284 284 284 284
269 270 270 271 272 273 273 274 274 274 276 278 280 281 282 283 284 284 284 284 284 284 284 284 284 284 284 284 284 284 284 284 284 284 284 284 284 284 284 284 284 285 285 284 285 284 285 285 285 284 284 284 284 284 284 284 284 284 284 284 284 284
268 269 269 270 271 272 273 273 273 273 275 278 280 281 282 283 283 284 284 284 284 284 283 283 284 284 284 284 284 284 284 284 284 284 284 284 284 284 284 284 284 284 284 284 284 284 284 284 284 284 284 284 284 284 284 284 284 284 284 284 284 284
268 268 269 269 270 271 272 272 272 272 273 277 279 281 282 283 283 283 283 283 283 283 283 283 283 284 284 284 284 284 284 284 284 284 284 284 284 284 284 284 284 284 284 284 284 284 284 284 284 284 284 284 284 284 284 284 284 284 283 284 283 283
268 268 268 268 270 271 271 272 272 272 272 276 279 281 282 283 283 284 283 283 283 283 283 283 283 283 284 284 284 284 284 284 284 284 284 284 284 284 284 284 284 285 285 285 284 284 284 284 284 284 283 283 283 284 284 283 283 283 283 283 283 283
267 268 268 268 269 270 270 271 272 272 272 274 278 280 281 282 283 284 283 283 283 283 283 283 283 283 284 284 284 284 284 284 284 284 284 284 284 284 284 284 284 284 285 285 284 284 284 284 284 283 283 283 283 283 283 283 283 283 283 283 283 283
267 267 267 268 268 269 270 271 272 272 272 273 276 277 279 280 281 282 282 282 283 283 283 283 283 284 284 284 284 284 284 284 284 284 284 284 284 284 284 284 284 284 284 284 284 284 284 284 284 283 283 283 283 283 283 283 283 283 283 283 283 283
266 266 267 268 268 268 269 271 272 272 272 273 274 276 276 277 278 279 280 281 282 282 282 283 283 283 284 284 284 284 284 284 284 284 284 284 284 284 284 284 284 284 284 284 284 284 284 284 284 284 283 283 283 283 283 283 283 283 283 282 282 282
265 266 267 268 268 269 269 270 272 272 272 272 273 274 275 276 277 278 279 280 280 281 281 282 283 283 283 283 284 284 284 284 284 284 284 284 284 284 284 284 284 284 284 284 284 284 284 284 284 283 283 283 283 283 283 283 283 283 282 282 282 282
265 266 267 268 268 268 269 269 270 272 272 272 272 273 274 275 276 277 278 279 280 280 281 281 282 282 283 283 283 283 283 283 283 284 284 284 284 284 284 284 284 284 284 284 284 283 283 283 283 283 283 283 283 283 283 282 282 282 282 282 282 282
264 265 267 268 267 268 269 269 269 271 272 272 272 272 273 275 276 276 277 278 279 280 281 281 281 281 282 282 282 282 283 283 283 283 284 284 284 284 284 284 284 284 284 283 283 283 283 283 283 283 283 282 282 282 282 282 282 282 282 282 282 282
263 265 266 267 267 267 268 269 269 270 271 272 272 273 273 274 275 276 277 278 279 280 280 281 281 281 281 281 282 282 282 283 283 283 283 283 283 283 283 283 283 283 283 282 282 282 283 283 283 282 282 282 282 281 281 281 281 281 281 281 281 281
263 264 265 266 266 267 267 268 269 269 270 271 272 273 273 274 275 276 277 278 279 279 280 280 280 280 280 281 281 281 282 282 282 282 282 282 282 282 282 282 282 282 282 282 282 282 282 282 282 282 281 281 281 281 281 281 281 281 281 281 281 281
263 264 265 266 266 266 267 267 268 269 269 270 271 272 273 274 276 277 277 278 278 279 279 279 279 280 280 280 280 281 281 281 281 281 281 281 281 281 281 282 282 282 282 282 281 281 281 281 281 281 281 281 281 281 281 281 281 281 280 280 280 280
262 263 264 265 265 266 266 267 268 268 269 270 271 272 273 275 276 277 277 277 278 278 278 278 279 279 279 279 280 280 280 280 280 280 280 280 280 280 281 281 281 281 281 281 281 281 281 281 281 281 281 281 280 280 280 280 280 280 280 280 280 279
262 263 263 264 265 265 265 266 267 268 269 270 271 272 274 275 275 276 277 277 277 277 277 278 278 278 278 279 279 279 279 279 279 279 280 280 280 280 280 280 280 280 280 280 280 280 280 280 280 280 280 280 280 279 279 279 279 279 279 279 278 278
261 262 263 264 265 265 265 266 267 268 269 270 271 272 273 274 275 275 276 276 276 277 277 277 277 277 277 278 278 278 278 278 278 278 279 279 279 279 279 279 279 279 279 279 279 279 279 279 279 279 279 279 279 278 278 278 278 278 278 277 277 277
261 262 263 264 264 265 265 265 266 267 268 270 271 272 273 274 274 275 275 275 275 275 276 276 276 276 276 277 277 277 277 277 277 277 277 278 278 278 278 278 278 278 278 278 278 278 278 278 278 278 278 278 277 277 277 277 276 276 276 276 276 276
Wind_Speed
17 17 15 14 15 16 16 16 18 18 18 17 15 15 17 20 21 23 25 25 26 26 25 24 24 26 30 33 36 38 41 43 42 40 37 35 32 28 26 23 21 20 19 17 15 14 14 13 12 12 11 10 10 10 10 10 10 10 11 11 12 11
17 16 16 15 15 15 15 16 18 18 18 16 15 16 18 19 21 23 24 25 25 25 25 25 25 26 29 32 34 37 37 36 35 32 30 28 25 23 21 20 19 18 17 15 14 13 13 12 11 11 10 10 11 11 10 10 10 9 10 10 10 10
20 18 17 17 16 16 15 16 16 16 17 16 15 16 18 19 21 23 23 24 25 25 24 25 25 25 27 28 30 30 29 29 29 28 28 26 24 21 20 19 18 17 16 15 14 13 13 11 11 11 11 12 12 11 11 11 11 11 10 10 10 10
25 22 21 20 18 17 15 14 13 13 15 15 15 16 18 19 20 22 22 23 23 24 24 24 25 24 25 26 27 27 28 29 29 29 27 25 23 21 20 19 18 17 16 15 15 14 13 12 12 13 13 13 13 13 12 12 12 12 12 12 12 12
23 22 22 21 20 18 16 15 13 12 13 14 14 16 17 18 19 20 21 22 22 23 23 24 24 25 25 27 28 29 29 30 29 27 25 23 22 21 20 19 18 17 16 16 16 16 15 15 15 15 15 15 14 13 13 12 12 12 12 12 12 12
21 20 21 21 22 21 18 16 14 13 13 13 13 15 16 18 19 19 20 21 21 22 23 23 24 26 27 29 30 30 30 29 27 26 24 23 22 22 21 20 18 18 18 18 18 18 18 18 18 17 17 16 15 14 13 12 12 12 12 12 11 12
25 24 22 20 20 21 18 15 13 13 13 13 14 15 16 17 18 19 19 20 21 21 22 23 25 27 28 29 29 29 29 28 27 25 24 24 24 23 23 22 21 21 22 21 21 21 20 19 19 18 17 15 14 13 12 12 11 11 11 10 10 10
26 25 24 21 19 19 18 15 13 14 15 15 15 16 16 16 17 19 19 20 21 21 22 24 25 26 27 28 28 28 28 28 27 27 26 26 26 26 26 25 25 25 24 23 22 21 20 20 18 17 16 15 13 12 11 11 10 10 9 9 8 8
26 26 25 23 19 17 17 17 16 17 17 16 16 16 16 16 17 18 20 20 22 22 23 25 26 27 28 29 29 29 29 29 29 29 29 28 28 28 28 27 27 26 25 24 23 22 21 21 20 18 17 16 14 14 13 12 11 11 11 10 10 10
27 27 25 24 22 17 14 16 18 18 17 16 16 15 15 16 17 18 20 21 22 23 24 26 27 28 29 30 30 31 31 31 31 31 31 30 29 29 28 28 27 27 25 24 24 23 22 21 20 19 18 17 16 15 15 14 14 13 13 12 12 12
29 28 27 25 23 19 15 16 19 18 15 14 14 14 14 15 17 18 20 21 22 24 25 26 28 29 30 31 32 32 33 32 32 32 31 30 30 30 29 29 28 27 26 24 23 22 21 19 19 18 17 17 17 16 16 15 15 14 14 13 12 12
29 28 26 24 22 21 17 17 18 17 13 10 11 11 12 14 16 19 21 23 24 25 26 27 28 29 30 31 32 32 32 31 31 31 30 31 31 30 29 28 27 25 24 23 22 21 20 19 18 17 17 16 16 16 15 14 14 13 13 12 12 11
28 26 25 23 21 21 19 17 17 14 10 7 7 9 11 14 17 20 22 24 25 26 27 28 28 29 29 30 30 30 30 30 30 30 30 30 30 29 28 26 25 24 23 22 21 21 20 20 19 18 16 15 14 14 14 14 13 12 11 11 10 10
28 27 25 23 20 19 18 16 16 12 7 4 5 7 10 14 17 20 22 23 25 25 26 27 27 27 28 28 28 29 29 30 30 30 30 29 28 27 26 25 24 24 23 22 21 21 20 20 19 18 17 15 14 13 13 13 12 11 11 10 9 9
27 26 25 24 21 18 17 15 14 11 5 2 5 7 10 13 16 18 20 22 23 24 25 25 26 27 27 28 28 29 29 29 30 29 29 28 27 26 26 25 24 24 22 21 20 20 20 20 19 18 16 15 14 12 12 12 11 10 10 9 8 7
26 26 24 22 19 16 13 12 9 7 3 4 8 9 12 14 15 16 18 20 22 23 24 24 25 27 27 28 28 29 29 29 29 28 27 27 26 25 25 24 24 23 22 20 20 19 19 19 18 17 15 14 13 12 11 10 10 9 8 7 6 5
25 26 25 22 19 16 12 9 5 6 5 6 10 12 14 16 17 18 18 19 20 21 22 23 24 25 26 26 26 27 27 27 27 27 26 25 24 23 23 22 22 22 21 20 19 18 18 18 16 15 13 12 11 10 9 9 8 7 7 6 4 3
24 25 25 23 21 17 13 9 3 5 6 7 12 14 15 17 18 19 20 20 20 21 21 22 22 23 24 24 24 24 24 25 25 24 23 23 22 22 21 21 20 20 19 18 17 16 16 16 15 13 12 11 9 8 8 7 7 6 5 4 3 2
22 22 22 22 21 18 14 10 3 3 5 9 13 15 16 18 19 19 20 21 22 22 22 22 22 22 23 22 22 22 22 22 22 22 21 20 20 20 19 18 18 18 17 16 16 15 14 14 13 11 10 9 8 7 6 6 5 4 3 3 1 1
20 19 19 20 20 17 15 11 4 3 5 9 14 15 17 20 20 21 21 21 22 22 22 22 22 22 22 22 21 21 20 20 20 20 19 18 18 18 17 16 16 15 15 15 14 13 12 11 11 10 8 8 7 6 6 5 4 3 2 1 0 1
19 17 17 17 17 15 13 11 5 4 6 10 13 15 18 21 21 21 21 21 21 22 22 21 21 21 21 20 20 20 20 19 19 19 18 16 16 16 16 14 13 13 13 13 12 12 10 9 9 8 7 7 6 6 6 5 4 3 2 1 1 3
18 17 16 15 16 14 11 12 7 4 7 10 13 15 18 21 21 21 21 20 20 20 21 21 21 21 20 20 20 20 19 18 18 17 17 16 15 15 14 13 11 10 10 10 10 10 8 8 7 7 6 6 6 6 5 5 4 3 2 2 2 3
16 16 15 14 15 13 10 11 10 4 7 10 13 15 18 20 22 22 22 21 20 19 19 20 20 20 20 20 20 19 18 18 17 16 15 15 14 13 12 12 10 9 9 9 9 9 8 7 6 6 6 6 6 5 5 5 4 4 3 3 4 5
15 14 13 12 12 12 10 10 10 5 5 9 13 15 18 20 22 22 22 21 21 19 18 18 18 18 19 19 19 18 17 17 16 15 14 13 12 11 10 10 9 8 7 7 8 8 7 7 6 6 6 6 6 6 6 5 5 5 5 6 6 7
16 14 13 12 11 10 10 9 9 7 2 9 13 15 18 21 22 22 21 20 20 20 18 18 17 17 17 17 17 16 16 16 15 14 12 11 10 9 8 8 7 6 5 6 7 7 6 5 5 6 7 7 7 7 7 8 8 7 8 8 8 9
16 14 13 12 11 10 9 8 7 6 0 7 13 16 18 21 22 22 21 19 19 19 18 18 17 16 15 15 15 15 14 14 13 12 12 10 9 8 7 6 6 5 4 5 6 6 5 4 5 6 7 7 8 8 9 10 10 10 10 11 11 11
16 14 12 11 10 10 9 8 6 5 2 6 11 14 17 20 22 22 21 20 20 19 19 18 17 16 15 15 14 13 13 12 12 11 10 9 8 7 6 6 5 4 3 4 5 4 4 5 6 6 6 7 8 8 9 10 11 12 12 12 12 12
15 14 12 10 10 10 9 8 6 5 3 5 9 11 14 17 20 21 21 21 21 20 20 19 18 17 15 15 14 13 12 11 10 9 9 8 8 7 6 5 4 3 2 2 3 2 3 5 6 6 6 7 8 9 9 10 11 12 12 12 12 11
14 14 12 10 10 10 9 8 7 5 4 4 7 9 11 14 17 18 19 19 20 20 19 18 18 17 16 15 13 12 12 11 10 9 8 8 7 7 6 5 4 2 1 1 1 2 4 5 7 7 7 8 9 10 10 10 11 12 12 12 12 12
15 14 13 11 10 10 9 8 7 5 4 4 5 7 9 12 15 17 17 17 18 19 18 17 17 17 16 15 14 13 12 11 10 9 8 8 7 5 4 3 2 1 1 2 2 3 4 5 7 8 8 8 10 10 11 11 11 12 12 12 13 13
14 13 12 12 11 10 8 8 7 5 5 5 5 6 7 10 13 15 15 15 16 16 16 15 15 14 14 14 13 12 11 10 9 8 7 6 5 4 3 3 2 2 2 3 3 4 5 6 7 8 9 9 10 11 11 12 12 13 13 13 13 14
13 12 11 11 10 9 8 7 7 5 5 6 6 6 7 8 10 12 13 13 14 14 14 13 13 12 12 12 11 10 10 9 8 7 5 4 3 2 2 2 2 2 2 3 4 4 6 7 8 8 9 10 10 11 12 12 13 14 14 14 15 15
10 10 10 9 9 8 7 7 6 5 5 6 6 6 7 7 8 10 11 11 12 12 12 12 11 11 11 10 9 9 8 7 6 5 4 3 2 1 2 2 2 3 3 4 5 6 7 8 9 9 10 11 11 12 13 14 14 15 15 15 16 16
9 9 8 8 7 7 6 6 6 5 6 6 6 6 7 7 7 8 9 9 9 9 10 9 9 9 8 8 8 7 6 5 4 3 3 2 2 2 3 3 4 4 5 6 6 7 8 9 9 10 11 12 13 14 14 15 16 16 16 16 16 17
9 8 8 8 7 7 6 6 6 6 6 6 6 6 6 6 6 7 7 7 7 7 7 7 7 6 6 6 6 5 4 4 3 3 3 3 2 3 3 4 5 5 6 7 8 8 9 10 11 12 12 13 14 14 15 15 16 17 16 16 16 16
8 8 8 7 7 7 7 6 6 6 6 6 6 6 5 5 6 6 6 6 5 5 5 5 5 4 4 4 4 4 4 3 3 3 4 4 3 4 4 5 6 6 7 8 8 9 10 11 12 13 13 13 14 14 15 15 16 16 15 15 15 15
8 8 8 7 7 7 7 7 7 7 7 7 6 5 5 5 5 6 5 5 4 4 4 3 3 3 3 3 3 3 3 3 3 4 4 4 4 5 5 6 6 7 8 8 9 9 10 11 12 13 13 13 13 14 14 14 14 14 14 14 14 14
7 8 9 8 8 8 8 8 8 7 7 7 6 6 5 5 5 5 5 5 4 4 3 3 2 2 2 2 2 3 3 3 4 4 4 5 5 5 6 6 7 8 8 9 10 10 11 11 12 13 13 13 13 13 13 13 13 13 13 13 13 13
Wind_Direction
348 342 334 325 319 316 312 304 300 299 297 294 289 271 253 248 248 250 253 253 253 253 251 248 241 234 233 233 230 227 222 216 209 203 198 195 194 196 200 205 210 215 217 217 219 222 224 226 233 237 235 232 230 226 228 233 234 232 228 229 232 232
359 352 339 327 322 319 314 309 308 308 304 297 284 270 259 252 250 252 254 254 254 252 248 245 241 236 234 233 229 223 217 210 204 199 197 198 200 203 205 207 209 209 208 209 211 211 208 210 217 221 221 220 216 214 218 218 214 211 211 214 217 218
1 359 349 339 333 329 326 325 323 317 309 300 285 273 265 258 253 252 252 252 252 251 247 243 238 235 232 230 227 222 214 207 204 203 204 206 207 207 206 204 201 199 201 201 200 199 198 202 206 204 205 205 204 206 207 205 203 201 200 202 204 206
6 2 357 350 345 341 339 337 333 324 312 302 288 275 266 259 254 250 248 248 248 246 243 240 235 230 227 224 221 215 207 204 203 204 205 205 204 203 201 199 197 195 195 194 191 191 191 191 192 191 191 192 193 195 198 199 203 204 205 208 210 213
14 11 5 357 349 345 343 342 338 325 313 302 288 275 266 259 253 249 245 243 242 241 237 234 229 223 218 215 211 207 204 201 199 199 201 202 201 199 196 194 194 191 188 186 184 183 182 181 180 181 181 182 185 189 193 197 201 204 205 210 213 216
16 17 15 6 354 346 342 341 338 321 305 296 284 272 264 258 253 248 245 240 237 235 231 226 222 217 213 209 205 203 201 199 198 199 200 200 197 192 189 187 186 183 181 180 178 176 176 176 177 179 180 183 188 192 197 201 204 207 210 212 214 216
11 12 13 13 6 356 344 336 329 314 300 289 280 271 263 257 252 246 241 237 232 227 223 218 214 211 207 204 202 199 198 198 198 198 195 193 190 185 182 180 177 177 178 178 177 175 175 176 178 179 181 183 188 192 196 199 201 203 205 204 205 204
2 5 7 9 12 8 356 339 317 305 301 292 281 274 265 256 249 243 236 231 226 221 216 212 208 206 203 201 200 198 197 196 193 190 188 186 184 180 177 176 175 176 177 176 175 173 172 173 172 173 173 174 176 178 179 181 181 180 178 175 173 170
353 356 360 2 5 8 4 348 324 307 303 298 284 273 266 255 245 238 231 225 221 215 211 207 203 202 200 198 197 195 193 191 187 184 182 180 180 177 175 174 173 173 172 170 167 166 166 165 163 162 162 162 163 163 162 160 158 156 154 151 148 144
349 349 353 357 0 2 5 359 339 316 304 299 284 270 261 250 240 232 224 218 213 207 203 200 197 196 194 192 190 188 186 184 182 180 178 176 176 174 172 170 168 166 165 163 161 161 161 161 159 158 157 156 156 155 154 152 149 146 143 140 137 134
346 345 346 353 360 2 6 10 354 328 307 296 280 263 250 240 229 222 214 207 201 196 192 190 187 186 185 183 182 180 179 177 176 175 174 173 171 168 166 164 162 161 159 158 158 157 156 155 154 153 153 153 152 150 149 147 144 142 139 135 133 130
342 341 341 348 358 2 6 16 7 340 311 292 272 247 232 224 214 206 201 194 188 183 180 178 176 174 174 174 174 173 173 172 172 171 169 167 165 162 160 158 157 156 155 153 152 150 148 147 145 144 146 148 147 145 143 141 139 136 135 133 130 128
339 337 338 342 350 358 4 17 19 354 315 287 260 230 212 207 199 191 186 180 175 173 171 170 169 168 168 168 168 168 168 168 167 166 164 162 159 156 155 154 151 150 149 147 146 144 143 140 136 135 136 136 138 138 136 134 132 131 129 128 126 125
337 336 335 336 340 352 1 15 25 9 330 272 234 213 199 195 190 181 176 171 167 167 166 165 165 164 163 163 163 162 162 162 161 160 158 155 152 150 150 148 146 144 143 143 142 141 139 135 131 129 128 127 128 131 131 129 129 128 127 126 124 124
336 333 332 332 332 341 353 6 23 21 355 217 190 194 189 187 185 177 170 165 163 162 161 162 162 161 159 159 158 157 157 157 155 154 152 150 148 147 146 144 142 139 138 139 139 137 134 130 126 125 124 123 123 125 126 126 126 126 125 123 124 123
335 330 328 328 325 325 338 356 22 40 51 165 171 180 182 176 173 169 163 160 158 156 156 158 159 159 156 155 155 154 154 153 150 148 148 145 144 143 142 141 139 136 134 133 133 132 129 124 121 119 120 121 121 123 125 124 123 122 122 121 122 122
335 328 324 325 321 316 324 339 22 78 101 157 163 166 172 167 161 158 154 153 153 152 152 154 155 155 153 151 151 151 149 148 145 143 142 141 140 139 137 136 136 134 132 130 129 127 123 118 115 114 114 115 116 118 122 121 120 121 121 122 120 116
337 331 325 324 320 312 313 320 352 91 111 157 159 156 162 163 158 153 150 149 149 149 149 150 151 150 148 147 148 147 145 144 141 138 138 139 138 137 135 134 134 134 133 130 126 123 121 118 117 114 111 110 109 110 114 115 117 120 121 121 118 106
335 331 326 323 319 311 306 304 297 109 127 160 159 153 157 161 159 154 151 148 147 147 148 148 149 148 146 146 145 143 142 141 139 137 138 138 136 134 133 133 133 133 132 128 122 121 121 119 116 112 110 108 105 103 104 104 105 109 112 117 122 100
333 331 330 324 318 310 301 291 262 149 153 165 158 152 156 160 158 155 154 153 150 149 149 148 149 148 147 146 145 142 140 140 139 138 138 138 135 132 130 131 131 131 128 123 118 118 120 116 112 109 108 103 96 93 90 90 93 95 96 103 352 304
333 331 333 327 318 311 298 283 253 168 167 171 160 153 156 158 156 154 154 155 154 152 150 149 148 147 146 145 144 142 141 141 140 138 137 136 133 131 128 127 128 127 123 118 113 111 112 110 106 104 100 93 86 81 77 77 81 79 72 56 333 311
335 333 337 336 327 320 304 283 261 182 165 173 164 157 157 156 153 152 153 154 155 153 151 149 147 146 145 144 143 142 142 141 139 136 135 133 132 130 127 124 124 121 114 109 105 102 100 97 93 89 84 77 72 70 66 64 61 51 38 26 348 325
340 338 344 346 336 328 315 290 273 214 156 168 169 162 159 155 152 153 153 153 153 151 149 147 146 145 144 141 140 141 139 137 136 134 133 131 129 128 125 122 120 115 106 97 92 88 82 75 68 63 59 56 52 49 48 42 34 21 9 359 344 334
340 340 345 352 345 335 327 305 283 262 153 162 170 164 158 156 154 153 152 150 150 148 146 145 144 143 142 139 137 136 134 132 131 130 128 127 125 124 122 118 114 110 102 90 81 77 69 58 46 37 35 35 28 19 17 13 5 357 352 343 336 334
336 342 345 352 355 347 338 321 292 283 163 153 164 163 158 157 155 152 150 149 148 146 145 145 144 143 141 139 136 135 133 131 130 128 127 124 122 121 118 113 108 101 94 82 70 63 55 45 35 25 19 16 10 359 354 352 348 345 342 335 332 330
331 341 345 348 359 359 352 340 311 300 14 142 156 161 160 157 153 150 149 149 148 146 145 146 146 146 144 141 139 138 137 135 133 132 131 128 127 125 120 111 103 90 78 68 58 49 30 10 12 15 9 1 356 350 343 340 338 335 334 332 329 329
328 335 342 347 357 3 6 1 336 321 25 123 146 158 159 154 150 148 148 149 149 147 147 148 149 150 149 146 145 144 142 141 140 139 137 136 135 134 130 122 111 95 75 63 54 40 7 346 346 354 354 346 342 339 333 330 328 325 325 325 324 324
327 330 338 349 357 4 14 19 5 350 21 99 130 147 151 147 144 144 146 148 148 147 149 151 152 152 152 151 151 151 149 147 148 148 147 145 145 145 143 138 128 114 87 60 42 10 340 329 325 329 332 327 323 322 320 318 317 315 315 316 316 315
327 331 337 348 360 6 14 25 31 20 18 72 114 131 140 139 138 139 143 146 146 147 149 153 153 152 152 152 153 154 154 152 153 155 155 155 156 155 148 143 137 129 113 15 343 320 315 313 311 313 317 315 312 311 310 309 308 307 306 305 304 305
328 334 337 343 358 7 9 18 35 44 41 59 91 111 126 134 133 134 138 142 144 146 148 150 151 151 151 151 152 154 156 156 159 164 167 166 166 164 156 152 155 171 244 271 285 292 296 299 301 304 308 309 307 304 303 303 301 297 296 296 297 301
329 336 337 339 351 3 8 13 22 40 63 74 82 92 109 125 128 129 132 136 139 142 143 144 146 148 149 150 152 155 158 161 165 173 179 176 171 169 171 176 180 199 235 254 267 278 284 287 292 299 305 306 304 302 301 300 295 293 293 294 296 297
329 336 337 336 345 357 9 16 16 24 54 74 84 89 96 108 117 121 126 131 135 138 140 143 145 147 148 151 154 158 162 166 171 178 181 177 170 171 185 197 197 207 235 258 271 276 281 284 289 297 300 299 299 298 298 296 293 293 293 294 294 294
332 336 336 337 344 355 10 20 20 22 38 57 75 88 92 98 107 114 119 125 131 134 137 141 144 145 148 150 153 159 165 170 177 180 175 166 163 188 232 249 253 257 267 277 282 285 287 289 292 295 295 295 297 297 295 293 292 292 293 293 294 294
339 340 342 344 348 358 13 22 26 30 38 46 60 75 85 94 104 110 114 118 124 128 132 137 139 142 146 148 151 159 165 172 183 192 190 190 200 232 261 274 278 278 278 279 280 282 283 285 288 289 289 291 292 291 292 291 290 290 292 293 293 294
346 349 353 355 353 360 16 27 32 38 46 51 57 66 79 90 99 105 109 113 116 119 125 130 134 140 145 148 153 161 168 180 200 217 227 230 231 244 261 271 275 277 277 276 276 275 276 278 280 281 283 285 287 287 289 289 289 289 290 292 293 294
353 357 3 4 1 4 17 30 39 46 53 58 63 70 81 91 97 100 103 107 111 115 119 123 129 138 146 153 162 168 177 193 208 224 237 243 244 250 260 268 272 273 274 273 272 273 275 277 279 280 283 285 287 288 289 289 289 290 292 294 296 297
1 9 12 11 7 9 17 29 43 52 56 61 70 78 84 94 101 103 102 103 106 110 115 120 130 144 155 165 174 181 194 209 220 232 246 254 259 264 269 274 279 282 283 282 281 281 282 283 285 286 288 289 291 292 292 291 291 292 293 296 298 300
10 17 16 13 11 13 18 28 41 50 56 65 76 83 90 98 103 105 107 108 107 109 115 125 144 169 184 194 203 210 219 229 237 245 255 265 273 278 283 286 290 293 294 294 294 294 293 293 293 293 294 294 295 295 294 293 292 292 294 297 299 301